{"data":{"norad_id":68307,"intl_designator":"2026-057P","name":"STARLINK-36264","alt_names":[],"object_type":"PAYLOAD","status":"ACTIVE","operator":null,"country":"US","launch_date":"2026-03-20","launch_site_code":"AFWTR","launch_vehicle":null,"mission":null,"orbit_class":"UNKNOWN","rcs_meters":null,"size_class":null,"mass_kg":null,"dimensions":null,"purposes":["comms"],"wikipedia_slug":null,"has_3d_model":false,"image_url":null,"decayed_at":null,"tle_current":{"epoch":"2026-05-25T04:00:03.998880Z","epoch_age_seconds":54475,"freshness":"FRESH","line1":"1 68307U 26057P   26145.16671295 -.00016878  00000+0 -11258-3 0  9990","line2":"2 68307  97.2841 271.3776 0001451  78.3427 216.0518 15.75176428  5983","mean_motion":15.75176428,"eccentricity":0.0001451,"inclination_deg":97.2841,"raan_deg":271.3776,"arg_perigee_deg":78.3427,"mean_anomaly_deg":216.0518,"bstar":-0.00011258,"rev_number":598,"period_min":91.41833095029,"perigee_km":343.15378107872,"apogee_km":345.1045827247,"semimajor_km":6722.2661819017,"source":"CELESTRAK","updated_at":"2026-05-25T13:38:21.918323Z"}}}